TV
NORAD ID: 25924
Int'l Code: 1999-053A
Perigee: 35,783.3 km
Apogee: 35,803.8 km
Inclination: 0.0 °
Period: 1,436.1 minutes
Semi major axis: 42164 km
Launch date: September 26, 1999
Source: People's Republic of China (PRC)
Comments: 28 C-band, 16 Ku-band; business services, public voice and data services, broadcasting, direct-to-home; Eastern Europe, CIS, South and Southeast Asia, Africa, Middle East, Australia.
Two Line Element Set (TLE):
1 25924U 99053A 13144.56619084 -.00000089 00000-0 10000-3 0 3806
2 25924 000.0025 263.4095 0002430 188.7984 068.9218 01.00272622 50061
Source: AFSPC
NASA's NSSDC Master Catalog entry for ABS 1 (LMI 1)